| time (UTC) | temp F | wind direction | speed MPH | gust MPH | rain 1hr in | rain 24hr in | rain mn in | humidity % | barometer mb |
| 20260505193824 | 55 | 25 | 5.0 | 8.0 | 0.00 | 0.00 | 0.00 | 80 | 1009.4 |
| 20260505193324 | 55 | 67 | 4.0 | 8.0 | 0.00 | 0.00 | 0.00 | 80 | 1009.3 |
| 20260505192819 | 55 | 27 | 4.0 | 10.0 | 0.00 | 0.00 | 0.00 | 80 | 1009.3 |
| 20260505192332 | 55 | 30 | 3.0 | 12.0 | 0.00 | 0.00 | 0.00 | 80 | 1009.2 |
| 20260505191827 | 56 | 68 | 5.0 | 12.0 | 0.00 | 0.00 | 0.00 | 79 | 1009.1 |
| 20260505191349 | 56 | 6 | 4.0 | 10.0 | 0.00 | 0.00 | 0.00 | 80 | 1009.1 |
| 20260505190841 | 56 | 300 | 6.0 | 11.0 | 0.00 | 0.00 | 0.00 | 79 | 1009.0 |
| 20260505190313 | 56 | 341 | 4.0 | 11.0 | 0.00 | 0.00 | 0.00 | 80 | 1009.0 |
| 20260505185823 | 56 | 40 | 4.0 | 10.0 | 0.00 | 0.00 | 0.00 | 80 | 1009.0 |
| 20260505185315 | 56 | 34 | 4.0 | 10.0 | 0.00 | 0.00 | 0.00 | 80 | 1009.0 |
| 20260505184827 | 56 | 1 | 3.0 | 10.0 | 0.00 | 0.00 | 0.00 | 80 | 1009.0 |
| 20260505184329 | 56 | 34 | 5.0 | 13.0 | 0.00 | 0.00 | 0.00 | 79 | 1008.9 |
| 20260505183816 | 56 | 3 | 4.0 | 12.0 | 0.00 | 0.00 | 0.00 | 80 | 1008.9 |
| 20260505183338 | 56 | 48 | 7.0 | 12.0 | 0.00 | 0.00 | 0.00 | 80 | 1008.9 |
| 20260505182829 | 57 | 66 | 4.0 | 11.0 | 0.00 | 0.00 | 0.00 | 81 | 1008.9 |
| 20260505182322 | 57 | 69 | 4.0 | 11.0 | 0.00 | 0.00 | 0.00 | 81 | 1008.9 |
| 20260505181817 | 57 | 269 | 5.0 | 9.0 | 0.00 | 0.00 | 0.00 | 81 | 1008.9 |
| 20260505181320 | 57 | 6 | 4.0 | 9.0 | 0.00 | 0.00 | 0.00 | 81 | 1008.9 |
| 20260505180827 | 57 | 325 | 3.0 | 10.0 | 0.00 | 0.00 | 0.00 | 81 | 1008.9 |
| 20260505180349 | 57 | 356 | 5.0 | 10.0 | 0.00 | 0.00 | 0.00 | 81 | 1008.9 |
| 20260505175820 | 57 | 115 | 1.0 | 3.0 | 0.00 | 0.00 | 0.00 | 82 | 1008.9 |
| 20260505175324 | 57 | 61 | 0.0 | 1.0 | 0.00 | 0.00 | 0.00 | 83 | 1008.9 |
| 20260505174844 | 57 | 61 | 0.0 | 1.0 | 0.00 | 0.00 | 0.00 | 83 | 1008.9 |
| 20260505174319 | 57 | 61 | 0.0 | 1.0 | 0.00 | 0.00 | 0.00 | 82 | 1008.9 |
| 20260505173815 | 57 | 13 | 0.0 | 6.0 | 0.00 | 0.00 | 0.00 | 82 | 1008.9 |
| 20260505173336 | 57 | 13 | 1.0 | 6.0 | 0.00 | 0.00 | 0.00 | 81 | 1008.8 |
| 20260505172829 | 57 | 19 | 2.0 | 8.0 | 0.00 | 0.00 | 0.00 | 80 | 1008.8 |
| 20260505172316 | 57 | 49 | 3.0 | 8.0 | 0.00 | 0.00 | 0.00 | 81 | 1008.8 |
| 20260505171814 | 57 | 39 | 3.0 | 7.0 | 0.00 | 0.00 | 0.00 | 81 | 1008.9 |
| 20260505171335 | 57 | 33 | 3.0 | 8.0 | 0.00 | 0.00 | 0.00 | 81 | 1008.9 |
| 20260505170820 | 57 | 8 | 3.0 | 8.0 | 0.00 | 0.00 | 0.00 | 81 | 1008.9 |
| 20260505170313 | 57 | 1 | 3.0 | 9.0 | 0.00 | 0.00 | 0.00 | 81 | 1008.8 |
| 20260505165823 | 57 | 41 | 4.0 | 8.0 | 0.00 | 0.00 | 0.00 | 81 | 1008.9 |
| 20260505165318 | 57 | 30 | 4.0 | 8.0 | 0.00 | 0.00 | 0.00 | 80 | 1008.9 |
| 20260505164813 | 57 | 67 | 3.0 | 8.0 | 0.00 | 0.00 | 0.00 | 81 | 1009.0 |
| 20260505164335 | 57 | 30 | 4.0 | 9.0 | 0.00 | 0.00 | 0.00 | 81 | 1009.0 |
| 20260505163819 | 57 | 330 | 3.0 | 9.0 | 0.00 | 0.00 | 0.00 | 81 | 1009.1 |
| 20260505163321 | 57 | 34 | 3.0 | 10.0 | 0.00 | 0.00 | 0.00 | 81 | 1009.1 |
| 20260505162817 | 57 | 61 | 2.0 | 11.0 | 0.00 | 0.00 | 0.00 | 81 | 1009.0 |
| 20260505162333 | 57 | 27 | 5.0 | 11.0 | 0.00 | 0.00 | 0.00 | 81 | 1009.1 |
| 20260505161825 | 57 | 319 | 4.0 | 7.0 | 0.00 | 0.00 | 0.00 | 81 | 1009.1 |
| 20260505161327 | 57 | 330 | 5.0 | 9.0 | 0.00 | 0.00 | 0.00 | 81 | 1009.2 |
| 20260505160842 | 57 | 64 | 5.0 | 9.0 | 0.00 | 0.00 | 0.00 | 81 | 1009.2 |
| 20260505160315 | 57 | 37 | 3.0 | 9.0 | 0.00 | 0.00 | 0.00 | 82 | 1009.2 |
| 20260505153322 | 56 | 69 | 5.0 | 8.0 | 0.00 | 0.00 | 0.00 | 83 | 1009.4 |
| 20260505152815 | 56 | 30 | 2.0 | 8.0 | 0.00 | 0.00 | 0.00 | 84 | 1009.4 |
| 20260505152326 | 56 | 21 | 3.0 | 8.0 | 0.00 | 0.00 | 0.00 | 84 | 1009.5 |
| 20260505151843 | 55 | 67 | 4.0 | 8.0 | 0.00 | 0.00 | 0.00 | 84 | 1009.5 |
| 20260505151317 | 55 | 64 | 1.0 | 7.0 | 0.00 | 0.00 | 0.00 | 84 | 1009.6 |
| 20260505150811 | 56 | 51 | 4.0 | 7.0 | 0.00 | 0.00 | 0.00 | 84 | 1009.6 |
| 20260505150355 | 56 | 21 | 4.0 | 8.0 | 0.00 | 0.00 | 0.00 | 84 | 1009.6 |
| 20260505140317 | 55 | 27 | 3.0 | 6.0 | 0.00 | 0.00 | 0.00 | 84 | 1010.0 |
| 20260505124816 | 55 | 353 | 2.0 | 6.0 | 0.00 | 0.00 | 0.00 | 85 | 1010.3 |
| 20260505124337 | 55 | 13 | 4.0 | 6.0 | 0.00 | 0.00 | 0.00 | 85 | 1010.3 |
| 20260505123822 | 55 | 356 | 3.0 | 7.0 | 0.00 | 0.00 | 0.00 | 85 | 1010.3 |
| 20260505123338 | 55 | 30 | 2.0 | 7.0 | 0.00 | 0.00 | 0.00 | 86 | 1010.3 |
| 20260505122813 | 54 | 360 | 4.0 | 9.0 | 0.00 | 0.00 | 0.00 | 86 | 1010.3 |
| 20260505122328 | 54 | 100 | 6.0 | 9.0 | 0.00 | 0.00 | 0.00 | 86 | 1010.4 |
| 20260505121848 | 54 | 37 | 4.0 | 11.0 | 0.00 | 0.00 | 0.00 | 86 | 1010.4 |
| 20260505121321 | 54 | 21 | 5.0 | 11.0 | 0.00 | 0.00 | 0.00 | 86 | 1010.4 |
| 20260505120835 | 54 | 33 | 5.0 | 11.0 | 0.00 | 0.00 | 0.00 | 86 | 1010.5 |
| 20260505120334 | 54 | 121 | 5.0 | 12.0 | 0.00 | 0.00 | 0.00 | 86 | 1010.5 |
| 20260505115819 | 54 | 79 | 7.0 | 11.0 | 0.00 | 0.00 | 0.00 | 86 | 1010.5 |
| 20260505115313 | 54 | 360 | 3.0 | 10.0 | 0.00 | 0.00 | 0.00 | 86 | 1010.5 |
| 20260505114823 | 53 | 21 | 5.0 | 10.0 | 0.00 | 0.00 | 0.00 | 86 | 1010.5 |
| 20260505114324 | 53 | 15 | 4.0 | 10.0 | 0.00 | 0.00 | 0.00 | 86 | 1010.6 |
| 20260505113827 | 53 | 55 | 4.0 | 12.0 | 0.00 | 0.00 | 0.00 | 87 | 1010.6 |
| 20260505113314 | 53 | 30 | 5.0 | 12.0 | 0.00 | 0.00 | 0.00 | 87 | 1010.7 |
| 20260505112822 | 53 | 75 | 5.0 | 9.0 | 0.00 | 0.00 | 0.00 | 87 | 1010.7 |
| 20260505112318 | 53 | 335 | 5.0 | 9.0 | 0.00 | 0.00 | 0.00 | 87 | 1010.7 |
| 20260505111841 | 53 | 44 | 4.0 | 9.0 | 0.00 | 0.00 | 0.00 | 87 | 1010.7 |
| 20260505111315 | 53 | 37 | 5.0 | 10.0 | 0.00 | 0.00 | 0.00 | 87 | 1010.7 |
| 20260505110828 | 53 | 360 | 5.0 | 10.0 | 0.00 | 0.00 | 0.00 | 87 | 1010.7 |
| 20260505110320 | 53 | 347 | 5.0 | 11.0 | 0.00 | 0.00 | 0.00 | 87 | 1010.7 |
| 20260505101815 | 53 | 32 | 5.0 | 13.0 | 0.00 | 0.00 | 0.00 | 87 | 1010.8 |
| 20260505101311 | 53 | 45 | 6.0 | 13.0 | 0.00 | 0.00 | 0.00 | 87 | 1010.8 |
| 20260505100824 | 53 | 328 | 6.0 | 12.0 | 0.00 | 0.00 | 0.00 | 88 | 1010.8 |
| 20260505100319 | 53 | 347 | 5.0 | 12.0 | 0.00 | 0.00 | 0.00 | 88 | 1010.9 |
| 20260505095830 | 52 | 21 | 6.0 | 13.0 | 0.00 | 0.00 | 0.00 | 89 | 1010.8 |
| 20260505095325 | 52 | 341 | 7.0 | 13.0 | 0.00 | 0.00 | 0.00 | 89 | 1010.8 |
| 20260505094817 | 52 | 8 | 6.0 | 9.0 | 0.00 | 0.00 | 0.00 | 89 | 1010.8 |
| 20260505094314 | 52 | 353 | 5.0 | 10.0 | 0.00 | 0.00 | 0.00 | 89 | 1010.8 |
| 20260505093846 | 52 | 3 | 5.0 | 11.0 | 0.00 | 0.00 | 0.00 | 89 | 1010.8 |
| 20260505093327 | 52 | 358 | 3.0 | 11.0 | 0.00 | 0.00 | 0.00 | 89 | 1010.8 |
| 20260505092819 | 52 | 53 | 5.0 | 11.0 | 0.00 | 0.00 | 0.00 | 89 | 1010.9 |
| 20260505092315 | 52 | 11 | 6.0 | 11.0 | 0.00 | 0.00 | 0.00 | 90 | 1010.9 |
| 20260505091837 | 52 | 49 | 3.0 | 10.0 | 0.00 | 0.00 | 0.00 | 90 | 1010.9 |
| 20260505091330 | 52 | 39 | 3.0 | 12.0 | 0.00 | 0.00 | 0.00 | 90 | 1011.0 |
| 20260505090816 | 52 | 27 | 7.0 | 13.0 | 0.00 | 0.00 | 0.00 | 90 | 1011.1 |
| 20260505090318 | 52 | 67 | 3.0 | 10.0 | 0.00 | 0.00 | 0.00 | 89 | 1011.1 |
| 20260505085844 | 52 | 31 | 4.0 | 10.0 | 0.00 | 0.00 | 0.00 | 89 | 1011.1 |
| 20260505085337 | 52 | 72 | 3.0 | 12.0 | 0.00 | 0.00 | 0.00 | 89 | 1011.1 |
| 20260505084829 | 52 | 314 | 6.0 | 12.0 | 0.00 | 0.00 | 0.00 | 89 | 1011.1 |
| 20260505084321 | 52 | 52 | 5.0 | 10.0 | 0.00 | 0.00 | 0.00 | 90 | 1011.1 |
| 20260505083816 | 52 | 357 | 4.0 | 9.0 | 0.00 | 0.00 | 0.00 | 90 | 1011.0 |
| 20260505083334 | 52 | 335 | 4.0 | 11.0 | 0.00 | 0.00 | 0.00 | 90 | 1011.0 |
| 20260505082826 | 52 | 63 | 4.0 | 11.0 | 0.00 | 0.00 | 0.00 | 90 | 1011.0 |
| 20260505082338 | 52 | 332 | 3.0 | 12.0 | 0.00 | 0.00 | 0.00 | 90 | 1011.0 |
| 20260505081820 | 52 | 6 | 6.0 | 12.0 | 0.00 | 0.00 | 0.00 | 90 | 1011.0 |
| 20260505081359 | 52 | 67 | 3.0 | 11.0 | 0.00 | 0.00 | 0.00 | 90 | 1011.0 |
| 20260505080825 | 52 | 82 | 4.0 | 7.0 | 0.00 | 0.00 | 0.00 | 90 | 1011.0 |
| 20260505080324 | 52 | 323 | 2.0 | 9.0 | 0.00 | 0.00 | 0.00 | 90 | 1011.0 |
| 20260505075826 | 52 | 30 | 4.0 | 9.0 | 0.00 | 0.00 | 0.00 | 90 | 1011.0 |
| 20260505075321 | 52 | 357 | 3.0 | 8.0 | 0.00 | 0.00 | 0.00 | 90 | 1011.1 |
| 20260505074816 | 52 | 30 | 3.0 | 9.0 | 0.00 | 0.00 | 0.00 | 90 | 1011.1 |
| 20260505074318 | 52 | 302 | 3.0 | 10.0 | 0.00 | 0.00 | 0.00 | 90 | 1011.2 |
| 20260505073825 | 52 | 25 | 7.0 | 10.0 | 0.00 | 0.00 | 0.00 | 90 | 1011.1 |
| 20260505073327 | 52 | 15 | 2.0 | 5.0 | 0.00 | 0.00 | 0.00 | 90 | 1011.1 |
| 20260505072822 | 52 | 21 | 2.0 | 10.0 | 0.00 | 0.00 | 0.00 | 90 | 1011.1 |
| 20260505072317 | 52 | 360 | 4.0 | 7.0 | 0.00 | 0.00 | 0.00 | 90 | 1011.1 |
| 20260505071813 | 52 | 49 | 2.0 | 7.0 | 0.00 | 0.00 | 0.00 | 90 | 1011.0 |
| 20260505071317 | 52 | 30 | 4.0 | 10.0 | 0.00 | 0.00 | 0.00 | 90 | 1011.0 |
| 20260505070821 | 51 | 349 | 2.0 | 10.0 | 0.00 | 0.00 | 0.00 | 90 | 1010.9 |
| 20260505070323 | 51 | 46 | 4.0 | 13.0 | 0.00 | 0.00 | 0.00 | 90 | 1010.9 |
| 20260505065853 | 51 | 77 | 6.0 | 13.0 | 0.00 | 0.00 | 0.00 | 90 | 1011.0 |
| 20260505065320 | 51 | 51 | 5.0 | 11.0 | 0.00 | 0.00 | 0.00 | 90 | 1011.0 |
| 20260505064822 | 51 | 341 | 4.0 | 11.0 | 0.00 | 0.00 | 0.00 | 90 | 1011.0 |
| 20260505064337 | 51 | 351 | 3.0 | 10.0 | 0.00 | 0.00 | 0.00 | 90 | 1011.1 |
| 20260505063829 | 51 | 314 | 6.0 | 11.0 | 0.00 | 0.00 | 0.00 | 90 | 1011.1 |
| 20260505063333 | 52 | 342 | 4.0 | 8.0 | 0.00 | 0.00 | 0.00 | 90 | 1011.2 |
| 20260505062826 | 52 | 351 | 3.0 | 10.0 | 0.00 | 0.00 | 0.00 | 90 | 1011.2 |
| 20260505062340 | 52 | 339 | 6.0 | 10.0 | 0.00 | 0.00 | 0.00 | 89 | 1011.3 |
| 20260505061815 | 52 | 330 | 1.0 | 8.0 | 0.00 | 0.00 | 0.00 | 89 | 1011.3 |
| 20260505061317 | 52 | 344 | 4.0 | 8.0 | 0.00 | 0.00 | 0.00 | 89 | 1011.3 |
| 20260505060848 | 52 | 55 | 4.0 | 9.0 | 0.00 | 0.00 | 0.00 | 89 | 1011.3 |
| 20260505060321 | 52 | 335 | 2.0 | 8.0 | 0.00 | 0.00 | 0.00 | 89 | 1011.3 |
| 20260505055834 | 52 | 333 | 3.0 | 8.0 | 0.00 | 0.00 | 0.00 | 89 | 1011.3 |
| 20260505055322 | 52 | 3 | 6.0 | 8.0 | 0.00 | 0.00 | 0.00 | 89 | 1011.3 |
| 20260505054823 | 52 | 335 | 3.0 | 10.0 | 0.00 | 0.00 | 0.00 | 89 | 1011.3 |
| 20260505054318 | 52 | 330 | 5.0 | 10.0 | 0.00 | 0.00 | 0.00 | 89 | 1011.2 |
| 20260505053834 | 52 | 22 | 4.0 | 12.0 | 0.00 | 0.00 | 0.00 | 89 | 1011.2 |
| 20260505053356 | 52 | 333 | 5.0 | 12.0 | 0.00 | 0.00 | 0.00 | 89 | 1011.1 |
| 20260505052829 | 52 | 11 | 4.0 | 11.0 | 0.00 | 0.00 | 0.00 | 89 | 1011.1 |
| 20260505052317 | 52 | 30 | 6.0 | 12.0 | 0.00 | 0.00 | 0.00 | 89 | 1011.1 |
| 20260505051820 | 52 | 335 | 2.0 | 8.0 | 0.00 | 0.00 | 0.00 | 89 | 1011.2 |
| 20260505051342 | 52 | 335 | 5.0 | 9.0 | 0.00 | 0.00 | 0.00 | 89 | 1011.1 |
| 20260505050834 | 52 | 359 | 2.0 | 9.0 | 0.00 | 0.00 | 0.00 | 89 | 1011.1 |
| 20260505050347 | 52 | 5 | 2.0 | 8.0 | 0.00 | 0.00 | 0.00 | 89 | 1011.2 |
| 20260505041319 | 53 | 37 | 4.0 | 7.0 | 0.00 | 0.00 | 0.00 | 89 | 1011.1 |
| 20260505040835 | 53 | 21 | 4.0 | 7.0 | 0.00 | 0.00 | 0.00 | 89 | 1011.0 |
| 20260505040345 | 53 | 319 | 2.0 | 7.0 | 0.00 | 0.00 | 0.00 | 89 | 1011.1 |
| 20260505035816 | 53 | 54 | 3.0 | 9.0 | 0.00 | 0.00 | 0.00 | 89 | 1011.1 |
| 20260505035331 | 53 | 354 | 2.0 | 11.0 | 0.00 | 0.00 | 0.00 | 89 | 1011.1 |
| 20260505034823 | 53 | 316 | 4.0 | 9.0 | 0.00 | 0.00 | 0.00 | 89 | 1011.1 |
| 20260505034317 | 53 | 49 | 3.0 | 10.0 | 0.00 | 0.00 | 0.00 | 89 | 1011.2 |
| 20260505033832 | 53 | 319 | 5.0 | 10.0 | 0.00 | 0.00 | 0.00 | 89 | 1011.2 |
| 20260505033326 | 53 | 51 | 5.0 | 11.0 | 0.00 | 0.00 | 0.00 | 89 | 1011.2 |
| 20260505032827 | 53 | 25 | 3.0 | 10.0 | 0.00 | 0.00 | 0.00 | 89 | 1011.3 |
| 20260505032313 | 53 | 325 | 4.0 | 10.0 | 0.00 | 0.00 | 0.00 | 89 | 1011.3 |
| 20260505031835 | 53 | 8 | 3.0 | 10.0 | 0.00 | 0.00 | 0.00 | 89 | 1011.3 |
| 20260505031315 | 53 | 332 | 4.0 | 9.0 | 0.00 | 0.00 | 0.00 | 88 | 1011.2 |
| 20260505030823 | 53 | 328 | 4.0 | 10.0 | 0.00 | 0.00 | 0.00 | 88 | 1011.3 |
| 20260505030324 | 53 | 359 | 3.0 | 10.0 | 0.00 | 0.00 | 0.00 | 88 | 1011.3 |
| 20260505025839 | 54 | 5 | 7.0 | 10.0 | 0.00 | 0.00 | 0.00 | 88 | 1011.3 |
| 20260505025345 | 54 | 55 | 3.0 | 14.0 | 0.00 | 0.00 | 0.00 | 88 | 1011.3 |
| 20260505024827 | 54 | 328 | 5.0 | 9.0 | 0.00 | 0.00 | 0.00 | 88 | 1011.3 |
| 20260505024342 | 54 | 25 | 5.0 | 11.0 | 0.00 | 0.00 | 0.00 | 88 | 1011.4 |
| 20260505023814 | 54 | 27 | 5.0 | 11.0 | 0.00 | 0.00 | 0.00 | 88 | 1011.4 |
| 20260505023337 | 54 | 221 | 5.0 | 12.0 | 0.00 | 0.00 | 0.00 | 88 | 1011.3 |
| 20260505022830 | 54 | 359 | 6.0 | 12.0 | 0.00 | 0.00 | 0.00 | 89 | 1011.4 |
| 20260505022318 | 54 | 30 | 6.0 | 13.0 | 0.00 | 0.00 | 0.00 | 89 | 1011.4 |
| 20260505021819 | 54 | 19 | 4.0 | 9.0 | 0.00 | 0.00 | 0.00 | 89 | 1011.4 |
| 20260505021340 | 54 | 333 | 4.0 | 10.0 | 0.00 | 0.00 | 0.00 | 89 | 1011.4 |
| 20260505020817 | 54 | 4 | 5.0 | 12.0 | 0.00 | 0.00 | 0.00 | 89 | 1011.4 |
| 20260505020320 | 54 | 25 | 3.0 | 12.0 | 0.00 | 0.00 | 0.00 | 90 | 1011.4 |
| 20260505015816 | 54 | 67 | 4.0 | 10.0 | 0.00 | 0.00 | 0.00 | 90 | 1011.4 |
| 20260505015330 | 54 | 91 | 5.0 | 10.0 | 0.00 | 0.00 | 0.00 | 90 | 1011.4 |
| 20260505014849 | 54 | 34 | 5.0 | 15.0 | 0.00 | 0.00 | 0.00 | 90 | 1011.3 |
| 20260505014323 | 54 | 283 | 5.0 | 11.0 | 0.00 | 0.00 | 0.00 | 90 | 1011.3 |
| 20260505013813 | 54 | 13 | 5.0 | 12.0 | 0.00 | 0.00 | 0.00 | 90 | 1011.4 |
| 20260505013323 | 54 | 13 | 5.0 | 10.0 | 0.00 | 0.00 | 0.00 | 90 | 1011.3 |
| 20260505012820 | 54 | 87 | 4.0 | 9.0 | 0.00 | 0.00 | 0.00 | 90 | 1011.3 |
| 20260505012334 | 54 | 16 | 2.0 | 9.0 | 0.00 | 0.00 | 0.00 | 90 | 1011.4 |
| 20260505011825 | 54 | 27 | 3.0 | 12.0 | 0.00 | 0.00 | 0.00 | 90 | 1011.4 |
| 20260505011329 | 54 | 351 | 6.0 | 12.0 | 0.00 | 0.00 | 0.00 | 89 | 1011.4 |
| 20260505010830 | 54 | 39 | 4.0 | 11.0 | 0.00 | 0.00 | 0.00 | 89 | 1011.4 |
| 20260505010331 | 54 | 22 | 6.0 | 11.0 | 0.00 | 0.00 | 0.00 | 89 | 1011.6 |
| 20260505005836 | 55 | 25 | 5.0 | 11.0 | 0.00 | 0.00 | 0.00 | 89 | 1011.7 |
| 20260505005318 | 55 | 41 | 4.0 | 14.0 | 0.00 | 0.00 | 0.00 | 89 | 1011.6 |
| 20260505004837 | 55 | 340 | 6.0 | 14.0 | 0.00 | 0.00 | 0.00 | 88 | 1011.6 |
| 20260505004332 | 55 | 349 | 5.0 | 11.0 | 0.00 | 0.00 | 0.00 | 88 | 1011.7 |
| 20260505003844 | 55 | 335 | 6.0 | 11.0 | 0.00 | 0.00 | 0.00 | 88 | 1011.7 |
| 20260505003318 | 56 | 22 | 5.0 | 10.0 | 0.00 | 0.00 | 0.00 | 88 | 1011.7 |
| 20260505002833 | 56 | 319 | 5.0 | 10.0 | 0.00 | 0.00 | 0.00 | 88 | 1011.7 |
| 20260505002346 | 56 | 19 | 4.0 | 11.0 | 0.00 | 0.00 | 0.00 | 88 | 1011.7 |
| 20260505001846 | 56 | 330 | 5.0 | 11.0 | 0.00 | 0.00 | 0.00 | 88 | 1011.7 |
| 20260505001319 | 56 | 358 | 4.0 | 10.0 | 0.00 | 0.00 | 0.00 | 88 | 1011.7 |
| 20260505000825 | 56 | 27 | 3.0 | 10.0 | 0.00 | 0.00 | 0.00 | 88 | 1011.7 |
| 20260505000320 | 56 | 321 | 3.0 | 12.0 | 0.00 | 0.00 | 0.00 | 88 | 1011.8 |
| 20260504235825 | 56 | 333 | 4.0 | 9.0 | 0.00 | 0.00 | 0.00 | 88 | 1011.8 |
| 20260504235338 | 56 | 25 | 5.0 | 10.0 | 0.00 | 0.00 | 0.00 | 88 | 1011.8 |
| 20260504234854 | 57 | 335 | 3.0 | 10.0 | 0.00 | 0.00 | 0.00 | 87 | 1011.9 |
| 20260504234327 | 57 | 35 | 3.0 | 13.0 | 0.00 | 0.00 | 0.00 | 87 | 1012.0 |
| 20260504233816 | 57 | 359 | 8.0 | 13.0 | 0.00 | 0.00 | 0.00 | 87 | 1012.0 |
| 20260504233318 | 57 | 42 | 4.0 | 10.0 | 0.00 | 0.00 | 0.00 | 87 | 1012.0 |
| 20260504232814 | 57 | 7 | 5.0 | 10.0 | 0.00 | 0.00 | 0.00 | 87 | 1012.0 |
| 20260504232325 | 57 | 354 | 4.0 | 9.0 | 0.00 | 0.00 | 0.00 | 87 | 1012.0 |
| 20260504231819 | 57 | 341 | 4.0 | 11.0 | 0.00 | 0.00 | 0.00 | 87 | 1012.1 |
| 20260504231322 | 57 | 354 | 4.0 | 10.0 | 0.00 | 0.00 | 0.00 | 87 | 1012.1 |
| 20260504230837 | 57 | 314 | 2.0 | 7.0 | 0.00 | 0.00 | 0.00 | 87 | 1012.2 |
| 20260504230312 | 58 | 44 | 3.0 | 7.0 | 0.00 | 0.00 | 0.00 | 87 | 1012.1 |
| 20260504225820 | 58 | 314 | 3.0 | 7.0 | 0.00 | 0.00 | 0.00 | 87 | 1012.1 |
| 20260504225335 | 58 | 330 | 4.0 | 7.0 | 0.00 | 0.00 | 0.00 | 87 | 1012.1 |
| 20260504224816 | 58 | 40 | 4.0 | 8.0 | 0.00 | 0.00 | 0.00 | 87 | 1012.1 |
| 20260504224358 | 58 | 58 | 4.0 | 9.0 | 0.00 | 0.00 | 0.00 | 87 | 1012.1 |
| 20260504223825 | 58 | 8 | 4.0 | 9.0 | 0.00 | 0.00 | 0.00 | 86 | 1012.2 |
| 20260504223326 | 58 | 354 | 5.0 | 10.0 | 0.00 | 0.00 | 0.00 | 86 | 1012.3 |
| 20260504222820 | 58 | 54 | 3.0 | 10.0 | 0.00 | 0.00 | 0.00 | 86 | 1012.3 |
| 20260504222334 | 58 | 44 | 5.0 | 9.0 | 0.00 | 0.00 | 0.00 | 86 | 1012.4 |
| 20260504221824 | 58 | 37 | 5.0 | 8.0 | 0.00 | 0.00 | 0.00 | 86 | 1012.4 |
| 20260504221327 | 58 | 341 | 5.0 | 9.0 | 0.00 | 0.00 | 0.00 | 86 | 1012.4 |
| 20260504220313 | 58 | 10 | 2.0 | 12.0 | 0.00 | 0.00 | 0.00 | 87 | 1012.5 |
| 20260504215824 | 58 | 16 | 6.0 | 12.0 | 0.00 | 0.00 | 0.00 | 87 | 1012.5 |
| 20260504215319 | 59 | 43 | 2.0 | 8.0 | 0.00 | 0.00 | 0.00 | 87 | 1012.5 |
| 20260504214815 | 59 | 24 | 4.0 | 8.0 | 0.00 | 0.00 | 0.00 | 87 | 1012.6 |
| 20260504214337 | 59 | 19 | 3.0 | 8.0 | 0.00 | 0.00 | 0.00 | 87 | 1012.6 |
| 20260504213849 | 59 | 42 | 4.0 | 10.0 | 0.00 | 0.00 | 0.00 | 87 | 1012.6 |
| 20260504213343 | 59 | 330 | 5.0 | 9.0 | 0.00 | 0.00 | 0.00 | 87 | 1012.5 |
| 20260504212824 | 59 | 321 | 4.0 | 9.0 | 0.00 | 0.00 | 0.00 | 87 | 1012.6 |
| 20260504212310 | 59 | 360 | 4.0 | 11.0 | 0.00 | 0.00 | 0.00 | 87 | 1012.6 |
| 20260504211812 | 59 | 348 | 5.0 | 11.0 | 0.00 | 0.00 | 0.00 | 87 | 1012.6 |
| 20260504211337 | 59 | 21 | 2.0 | 11.0 | 0.00 | 0.00 | 0.00 | 87 | 1012.7 |
| 20260504210822 | 59 | 263 | 4.0 | 8.0 | 0.00 | 0.00 | 0.00 | 87 | 1012.7 |
| 20260504210318 | 59 | 308 | 2.0 | 8.0 | 0.00 | 0.00 | 0.00 | 87 | 1012.7 |
| 20260504205831 | 59 | 347 | 3.0 | 8.0 | 0.00 | 0.00 | 0.00 | 87 | 1012.7 |
| 20260504205326 | 59 | 356 | 4.0 | 7.0 | 0.00 | 0.00 | 0.00 | 87 | 1012.7 |
| 20260504204821 | 59 | 356 | 3.0 | 7.0 | 0.00 | 0.00 | 0.00 | 87 | 1012.6 |
| 20260504204324 | 59 | 45 | 3.0 | 7.0 | 0.00 | 0.00 | 0.00 | 87 | 1012.7 |
| 20260504203812 | 59 | 319 | 3.0 | 7.0 | 0.00 | 0.00 | 0.00 | 86 | 1012.7 |
| 20260504203317 | 59 | 335 | 3.0 | 7.0 | 0.00 | 0.00 | 0.00 | 86 | 1012.7 |
| 20260504202823 | 60 | 360 | 3.0 | 7.0 | 0.00 | 0.00 | 0.00 | 86 | 1012.6 |
| 20260504202315 | 60 | 354 | 4.0 | 10.0 | 0.00 | 0.00 | 0.00 | 86 | 1012.6 |
| 20260504201836 | 60 | 31 | 4.0 | 10.0 | 0.00 | 0.00 | 0.00 | 86 | 1012.5 |
| 20260504201331 | 60 | 341 | 3.0 | 7.0 | 0.00 | 0.00 | 0.00 | 86 | 1012.5 |
| 20260504200816 | 60 | 27 | 3.0 | 7.0 | 0.00 | 0.00 | 0.00 | 86 | 1012.5 |
| 20260504200338 | 60 | 19 | 4.0 | 8.0 | 0.00 | 0.00 | 0.00 | 86 | 1012.5 |
| 20260504195849 | 60 | 41 | 4.0 | 8.0 | 0.00 | 0.00 | 0.00 | 87 | 1012.5 |
| 20260504195324 | 60 | 352 | 1.0 | 10.0 | 0.00 | 0.00 | 0.00 | 87 | 1012.4 |
| 20260504194818 | 60 | 351 | 5.0 | 10.0 | 0.00 | 0.00 | 0.00 | 87 | 1012.3 |